Quillayute, WA

8:03 PM PDT on June 25, 2017 (GMT -0700)
Quillayute

Weather History for KUIL - October, 2013

Change the Weather History Date:

Thursday, October 24, 2013

  Actual Average Record
Temperature  
Mean Temperature 50 °F 48 °F  
Max Temperature 57 °F 56 °F 72 °F (1974)
Min Temperature 42 °F 41 °F 32 °F (1972)
Degree Days  
Heating Degree Days 15 17  
Month to date heating degree days 301 344  
Since 1 July heating degree days 592 969  
Cooling Degree Days 0 0  
Month to date cooling degree days 0 0  
Year to date cooling degree days 39 19  
Moisture  
Dew Point 46 °F    
Average Humidity 85    
Maximum Humidity 93    
Minimum Humidity 77    
Precipitation  
Precipitation 0.00 in 0.39 in 2.09 in (1982)
Month to date precipitation 2.60 7.46  
Year to date precipitation 74.01 68.00  
Sea Level Pressure  
Sea Level Pressure 30.07 in    
Wind  
Wind Speed 2 mph (North)    
Max Wind Speed 7 mph    
Max Gust Speed 10 mph    
Visibility 2 miles    
Events Fog    
T = Trace of Precipitation, MM = Missing Value Source: NWS Daily Summary

Daily Weather History Graph

Daily Weather History Graph

Search for Another Location

Airport or City:

Trip Planner

Search our weather history database for the weather conditions in past years. The results will help you decide how hot, cold, wet, or windy it might be!

Date:

Astronomy

Oct. 24, 2013 Rise Set
Actual Time 7:51 AM PDT 6:12 PM PDT
Civil Twilight 7:19 AM PDT 6:44 PM PDT
Nautical Twilight 6:43 AM PDT 7:20 PM PDT
Astronomical Twilight 6:07 AM PDT 7:56 PM PDT
Moon 10:33 PM PDT (10/24) 1:06 PM PDT (10/24)
Length of Visible Light 11h 24m
Length of Day
10h 21m
Waning Gibbous, 70% of the Moon is Illuminated
Oct 24
Waning Gibbous
Oct 26
Last Quarter
Nov 3
New
Nov 9
First Quarter
Nov 17
Full

Hourly Weather History & Observations

Time (PDT) Temp. Windchill Dew Point Humidity Pressure Visibility Wind Dir Wind Speed Gust Speed Precip Events Conditions
12:05 AM 51.8 °F - 48.2 °F 88% 30.03 in 1.0 mi NNE 3.5 mph - N/A   Overcast
12:14 AM 51.8 °F - 48.2 °F 88% 30.03 in 0.8 mi North 3.5 mph - N/A   Overcast
12:53 AM 51.1 °F - 48.0 °F 89% 30.04 in 0.8 mi Calm Calm - N/A   Mist
1:53 AM 51.1 °F - 48.0 °F 89% 30.04 in 1.0 mi Calm Calm - N/A   Mist
2:53 AM 50.0 °F - 46.9 °F 89% 30.05 in 1.2 mi Calm Calm - N/A   Overcast
3:00 AM 50.0 °F - 46.4 °F 87% 30.04 in 1.8 mi Calm Calm - N/A   Overcast
3:11 AM 50.0 °F - 48.2 °F 94% 30.05 in 1.0 mi Calm Calm - N/A   Overcast
3:41 AM 51.8 °F - 46.4 °F 82% 30.04 in 1.8 mi Calm Calm - N/A   Overcast
3:53 AM 50.0 °F - 46.9 °F 89% 30.05 in 2.5 mi NE 3.5 mph - N/A   Overcast
4:03 AM 50.0 °F - 46.4 °F 87% 30.05 in 3.0 mi Calm Calm - N/A   Overcast
4:17 AM 50.0 °F - 46.4 °F 87% 30.05 in 1.8 mi East 3.5 mph - N/A   Overcast
4:27 AM 50.0 °F - 46.4 °F 87% 30.05 in 1.0 mi Calm Calm - N/A   Overcast
4:53 AM 50.0 °F - 46.9 °F 89% 30.05 in 1.5 mi Calm Calm - N/A   Overcast
5:03 AM 50.0 °F - 46.4 °F 87% 30.05 in 1.2 mi Calm Calm - N/A   Overcast
5:25 AM 50.0 °F - 46.4 °F 87% 30.05 in 0.8 mi Calm Calm - N/A   Overcast
5:45 AM 50.0 °F - 46.4 °F 87% 30.05 in 1.0 mi Calm Calm - N/A   Overcast
5:53 AM 50.0 °F - 46.9 °F 89% 30.05 in 0.8 mi Calm Calm - N/A   Overcast
6:53 AM 50.0 °F - 46.9 °F 89% 30.05 in 1.0 mi Calm Calm - N/A   Overcast
7:53 AM 50.0 °F - 46.9 °F 89% 30.05 in 1.5 mi NNE 3.5 mph - N/A   Overcast
8:17 AM 50.0 °F - 46.4 °F 87% 30.05 in 1.0 mi Calm Calm - N/A   Overcast
8:42 AM 51.8 °F - 46.4 °F 82% 30.05 in 1.8 mi NNE 3.5 mph - N/A   Overcast
8:53 AM 51.1 °F - 46.9 °F 86% 30.06 in 1.8 mi NE 4.6 mph - N/A   Overcast
9:06 AM 51.8 °F - 46.4 °F 82% 30.06 in 2.0 mi NE 3.5 mph - N/A   Overcast
9:43 AM 51.8 °F - 48.2 °F 88% 30.07 in 1.8 mi North 3.5 mph - N/A   Overcast
9:53 AM 51.1 °F - 48.0 °F 89% 30.07 in 1.5 mi NNE 3.5 mph - N/A   Overcast
10:30 AM 51.8 °F - 48.2 °F 88% 30.07 in 2.5 mi Calm Calm - N/A   Overcast
10:37 AM 51.8 °F - 48.2 °F 88% 30.07 in 4.0 mi Calm Calm - N/A   Overcast
10:53 AM 53.1 °F - 48.9 °F 86% 30.07 in 5.0 mi NE 3.5 mph - N/A   Overcast
11:10 AM 53.6 °F - 48.2 °F 82% 30.07 in 6.0 mi North 4.6 mph - N/A   Overcast
11:53 AM 54.0 °F - 50.0 °F 86% 30.08 in 5.0 mi NNE 3.5 mph - N/A   Overcast
12:53 PM 55.0 °F - 48.9 °F 80% 30.08 in 6.0 mi North 4.6 mph - N/A   Haze
1:53 PM 55.9 °F - 48.9 °F 77% 30.07 in 6.0 mi WNW 4.6 mph - N/A   Haze
2:53 PM 55.9 °F - 50.0 °F 80% 30.06 in 5.0 mi NW 5.8 mph - N/A   Haze
3:25 PM 55.4 °F - 48.2 °F 77% 30.06 in 5.0 mi Variable 4.6 mph - N/A   Haze
3:53 PM 55.9 °F - 48.9 °F 77% 30.06 in 5.0 mi WNW 4.6 mph - N/A   Haze
4:53 PM 55.0 °F - 48.0 °F 77% 30.07 in 6.0 mi WNW 5.8 mph - N/A   Haze
5:53 PM 55.0 °F - 48.0 °F 77% 30.07 in 6.0 mi Calm Calm - N/A   Haze
6:08 PM 53.6 °F - 46.4 °F 77% 30.07 in 6.0 mi Calm Calm - N/A   Haze
6:18 PM 53.6 °F - 46.4 °F 77% 30.07 in 6.0 mi Calm Calm - N/A   Haze
6:53 PM 48.9 °F - 46.0 °F 90% 30.08 in 3.0 mi Calm Calm - N/A   Partly Cloudy
7:12 PM 48.2 °F - 44.6 °F 87% 30.07 in 1.8 mi Calm Calm - N/A   Clear
7:19 PM 48.2 °F - 44.6 °F 87% 30.07 in 0.8 mi Calm Calm - N/A   Clear
7:36 PM 46.4 °F - 42.8 °F 87% 30.08 in 0.8 mi Calm Calm - N/A   Mist
7:50 PM 46.4 °F - 42.8 °F 87% 30.08 in 1.8 mi Calm Calm - N/A   Haze
7:53 PM 46.9 °F - 43.0 °F 86% 30.08 in 3.0 mi Calm Calm - N/A   Mostly Cloudy
8:14 PM 48.2 °F - 44.6 °F 87% 30.08 in 1.8 mi Calm Calm - N/A   Overcast
8:22 PM 46.4 °F - 44.6 °F 93% 30.09 in 1.2 mi Calm Calm - N/A   Overcast
8:26 PM 46.4 °F - 42.8 °F 87% 30.09 in 2.0 mi Calm Calm - N/A   Overcast
8:31 PM 46.4 °F - 42.8 °F 87% 30.09 in 1.0 mi Calm Calm - N/A   Haze
8:38 PM 46.4 °F - 42.8 °F 87% 30.09 in 0.5 mi Calm Calm - N/A Fog Fog
8:45 PM 46.4 °F - 42.8 °F 87% 30.09 in 0.5 mi Calm Calm - N/A   Haze
8:53 PM 46.0 °F - 42.1 °F 86% 30.09 in 0.2 mi Calm Calm - N/A Fog Fog
8:56 PM 46.4 °F - 42.8 °F 87% 30.09 in 0.2 mi Calm Calm - N/A Fog Fog
9:08 PM 44.6 °F - 42.8 °F 93% 30.09 in 0.2 mi Calm Calm - N/A Fog Fog
9:30 PM 44.6 °F - 41.0 °F 87% 30.10 in 0.2 mi Calm Calm - N/A Fog Fog
9:53 PM 43.0 °F - 39.9 °F 89% 30.11 in 0.2 mi Calm Calm - N/A Fog Fog
10:20 PM 42.8 °F - 39.2 °F 87% 30.11 in 0.2 mi Calm Calm - N/A Fog Fog
10:53 PM 43.0 °F - 39.9 °F 89% 30.12 in 0.2 mi Calm Calm - N/A Fog Fog
11:46 PM 44.6 °F 43.1 °F 41.0 °F 87% 30.13 in 0.2 mi North 3.5 mph - N/A Fog Fog
11:53 PM 44.1 °F - 41.0 °F 89% 30.13 in 0.2 mi Calm Calm - N/A Fog Fog